This demonstration page uses our WeatherBlox Daily Observations layout. Learn more.

Left ArrowRight Arrow

Hourly Observations for June 9, 2019

Temp ( °F °C ) Dew Point ( °F °C ) Humidity (%) Winds ( mph kmh ) Pressure ( in mb ) Visibility ( mi km ) Precip ( " mm )
12:53 am 00:53 Mostly Cloudy with Light Rain 69 20.6 64 17.8 84 84 E 9 15 29.93 1014 10 16 N/A
1:53 am 01:53 Mostly Cloudy with Light Rain 68 20 65 18.3 90 90 E 7 11 29.93 1014 7 11 0.03 0.76
2:53 am 02:53 Mostly Cloudy with Light Rain 67 19.4 65 18.3 93 93 E 6 9 29.92 1013 10 16 N/A
3:53 am 03:53 Cloudy with Light Rain 67 19.4 65 18.3 93 93 E 7 11 29.91 1013 10 16 0.01 0.25
4:53 am 04:53 Mostly Cloudy with Light Rain 67 19.4 65 18.3 93 93 E 7 11 29.91 1013 9 14 0.01 0.25
5:53 am 05:53 Cloudy 67 19.4 66 18.9 97 97 E 7 11 29.92 1013 10 16 0.02 0.51
6:53 am 06:53 Cloudy with Light Rain 67 19.4 65 18.3 93 93 E 7 11 29.93 1014 10 16 N/A
7:53 am 07:53 Cloudy with Light Rain 68 20 66 18.9 93 93 E 7 11 29.95 1014 10 16 N/A
8:53 am 08:53 Mostly Cloudy 69 20.6 67 19.4 93 93 E 10 17 29.96 1015 10 16 0.01 0.25
9:42 am 09:42 Cloudy 70 21.1 67 19.4 90 90 E 9 15 29.96 1015 10 16 N/A
9:53 am 09:53 Cloudy 70 21.1 67 19.4 90 90 E 7 11 29.96 1015 10 16 N/A
10:53 am 10:53 Cloudy with Light Rain 72 22.2 67 19.4 84 84 VRB 7 11 29.96 1015 10 16 N/A
11:53 am 11:53 Cloudy with Light Rain 71 21.7 68 20 90 90 E 7 11 29.96 1015 10 16 N/A
12:29 pm 12:29 Cloudy 72 22.2 67 19.4 84 84 ESE 7 11 29.96 1015 10 16 N/A
12:36 pm 12:36 Cloudy 72 22.2 68 20 87 87 E 7 11 29.96 1015 10 16 N/A
12:53 pm 12:53 Cloudy 73 22.8 68 20 84 84 VRB 6 9 29.96 1015 10 16 N/A
1:53 pm 13:53 Cloudy 74 23.3 69 20.6 85 85 VRB 5 7 29.95 1014 10 16 N/A
2:53 pm 14:53 Mostly Cloudy 77 25 69 20.6 77 77 ESE 6 9 29.93 1013 10 16 N/A
3:53 pm 15:53 Cloudy 77 25 69 20.6 77 77 VRB 5 7 29.93 1013 10 16 N/A
4:10 pm 16:10 Cloudy 77 25 69 20.6 77 77 ESE 6 9 29.91 1013 10 16 N/A
4:44 pm 16:44 Cloudy 78 25.6 69 20.6 74 74 ESE 7 11 29.90 1013 10 16 N/A
4:53 pm 16:53 Cloudy 78 25.6 69 20.6 74 74 E 9 15 29.92 1013 10 16 N/A
5:01 pm 17:01 Mostly Cloudy 79 26.1 69 20.6 72 72 E 10 17 29.90 1013 10 16 N/A
5:53 pm 17:53 Mostly Cloudy 78 25.6 69 20.6 74 74 VRB 6 9 29.91 1013 10 16 N/A
6:53 pm 18:53 Mostly Sunny 77 25 70 21.1 79 79 VRB 5 7 29.91 1013 10 16 0.01 0.25
7:40 pm 19:40 Mostly Cloudy 77 25 70 21.1 79 79 E 5 7 29.90 1013 10 16 N/A
7:53 pm 19:53 Partly Cloudy 77 25 69 20.6 77 77 undefined N/A 29.92 1013 10 16 N/A
8:53 pm 20:53 Cloudy 76 24.4 69 20.6 79 79 N N/A 29.92 1013 10 16 N/A
9:53 pm 21:53 Mostly Cloudy 73 22.8 69 20.6 87 87 E 3 6 29.92 1013 10 16 N/A
10:53 pm 22:53 Mostly Cloudy 72 22.2 70 21.1 94 94 N N/A 29.93 1013 10 16 0.01 0.25
11:53 pm 23:53 Mostly Cloudy with Light Rain 73 22.8 70 21.1 90 90 N N/A 29.92 1013 8 13 0.03 0.76

Powered by AerisWeather